Weather History for Skagway, AK

Change the Weather History Date:

Friday, March 15, 2013

  Actual Average Record
Temperature  
Mean Temperature 18 °F -  
Max Temperature 21 °F 35 °F 54 °F (1989)
Min Temperature 15 °F 24 °F 7 °F (2006)
Degree Days  
Heating Degree Days 47    
Moisture  
Dew Point 1 °F    
Average Humidity 46    
Maximum Humidity 62    
Minimum Humidity 30    
Precipitation  
Precipitation 0.00 in - - ()
Sea Level Pressure  
Sea Level Pressure 30.12 in    
Wind  
Wind Speed 17 mph (NNE)    
Max Wind Speed 22 mph    
Max Gust Speed 32 mph    
Visibility 8 miles    
Events Snow    
Averages and records for this station are not official NWS values.
T = Trace of Precipitation, MM = Missing Value Source: NWS Daily Summary

Daily Weather History Graph

Daily Weather History Graph

Search for Another Location

Airport:

Trip Planner

Search our weather history database for the weather conditions in past years. The results will help you decide how hot, cold, wet, or windy it might be!

Date:

Astronomy

Mar. 15, 2013 Rise Set
Actual Time 7:16 AM AKDT 7:04 PM AKDT
Civil Twilight 6:35 AM AKDT 7:45 PM AKDT
Nautical Twilight 5:47 AM AKDT 8:34 PM AKDT
Astronomical Twilight 4:56 AM AKDT 9:25 PM AKDT
Moon 8:06 AM AKDT (3/15) No Moon Set
Length of Visible Light 13h 09m
Length of Day
11h 48m
Waxing Crescent, 16% of the Moon is Illuminated
Mar 15
Waxing Crescent
Mar 19
First Quarter
Mar 27
Full
Apr 2
Last Quarter
Apr 10
New

Hourly Weather History & Observations

Time (AKDT) Temp. Windchill Dew Point Humidity Pressure Visibility Wind Dir Wind Speed Gust Speed Precip Events Conditions
12:53 AM 21.0 °F 5.4 °F -6.0 °F 30% 30.17 in 10.0 mi NNE 20.7 mph 27.6 mph N/A   Clear
1:53 AM 19.9 °F 5.2 °F -5.1 °F 33% 30.18 in 10.0 mi NNE 17.3 mph 24.2 mph N/A   Mostly Cloudy
2:53 AM 19.9 °F 5.2 °F -4.0 °F 35% 30.17 in 10.0 mi NNE 17.3 mph 29.9 mph N/A   Overcast
3:53 AM 19.0 °F 4.0 °F -2.9 °F 38% 30.16 in 10.0 mi NE 17.3 mph 24.2 mph N/A   Overcast
4:53 AM 19.0 °F 3.6 °F -2.9 °F 38% 30.13 in 10.0 mi NNE 18.4 mph 26.5 mph N/A   Overcast
5:53 AM 19.0 °F 3.6 °F -2.9 °F 38% 30.13 in 10.0 mi NNE 18.4 mph 32.2 mph N/A   Overcast
6:53 AM 17.1 °F 0.6 °F 3.0 °F 54% 30.13 in 8.0 mi NNE 19.6 mph 29.9 mph 0.00 in   Overcast
7:53 AM 16.0 °F 1.1 °F 1.0 °F 52% 30.12 in 7.0 mi NNE 15.0 mph 27.6 mph 0.00 in   Overcast
8:35 AM 15.8 °F 0.9 °F 5.0 °F 62% 30.12 in 1.8 mi NNE 15.0 mph 23.0 mph 0.00 in Snow Light Snow
8:46 AM 15.8 °F -0.2 °F 3.2 °F 58% 30.12 in 1.8 mi NNE 17.3 mph 24.2 mph 0.00 in Snow Light Snow
8:53 AM 16.0 °F -0.4 °F 5.0 °F 62% 30.12 in 1.8 mi NE 18.4 mph 31.1 mph 0.00 in Snow Light Snow
9:39 AM 15.8 °F 0.3 °F 3.2 °F 58% 30.12 in 2.5 mi NNE 16.1 mph 31.1 mph 0.00 in Snow Light Snow
9:50 AM 15.8 °F 0.9 °F 3.2 °F 58% 30.12 in 4.0 mi NNE 15.0 mph 26.5 mph 0.00 in Snow Light Snow
9:53 AM 16.0 °F 1.7 °F 3.9 °F 59% 30.12 in 4.0 mi NE 13.8 mph 23.0 mph 0.00 in Snow Light Snow
10:53 AM 17.1 °F 2.0 °F 1.0 °F 50% 30.11 in 10.0 mi NNE 16.1 mph 25.3 mph N/A   Overcast
11:53 AM 18.0 °F 4.8 °F 1.9 °F 50% 30.12 in 10.0 mi NNE 12.7 mph 25.3 mph 0.00 in   Overcast
12:53 PM 19.0 °F 3.2 °F 1.0 °F 46% 30.12 in 10.0 mi NNE 19.6 mph 28.8 mph 0.00 in   Overcast
1:53 PM 19.9 °F 4.3 °F -0.0 °F 42% 30.10 in 10.0 mi NNE 19.6 mph 27.6 mph N/A   Overcast
2:53 PM 21.0 °F 5.0 °F -0.9 °F 38% 30.09 in 10.0 mi NE 21.9 mph 31.1 mph N/A   Overcast
3:53 PM 21.9 °F 7.3 °F -0.9 °F 37% 30.08 in 10.0 mi NE 18.4 mph 26.5 mph N/A   Overcast
4:53 PM 21.9 °F 9.2 °F 1.9 °F 42% 30.08 in 10.0 mi NNE 13.8 mph 25.3 mph N/A   Overcast
5:53 PM 21.0 °F 9.9 °F 1.9 °F 44% 30.09 in 10.0 mi NNE 10.4 mph - N/A   Overcast
6:53 PM 21.0 °F 11.4 °F 3.0 °F 46% 30.10 in 10.0 mi NNE 8.1 mph - N/A   Overcast
7:53 PM 19.9 °F 8.6 °F 3.0 °F 48% 30.11 in 10.0 mi NNE 10.4 mph 17.3 mph N/A   Overcast
8:53 PM 19.9 °F 9.3 °F 1.9 °F 46% 30.11 in 10.0 mi NNE 9.2 mph 20.7 mph N/A   Overcast
9:53 PM 19.9 °F 7.3 °F 1.9 °F 46% 30.11 in 10.0 mi NNE 12.7 mph 24.2 mph N/A   Overcast
10:53 PM 19.9 °F 7.3 °F 1.9 °F 46% 30.11 in 10.0 mi NNE 12.7 mph 32.2 mph N/A   Overcast
11:53 PM 19.9 °F 5.7 °F 1.0 °F 44% 30.12 in 10.0 mi NNE 16.1 mph 25.3 mph N/A   Overcast